This demonstration page uses our WeatherBlox Daily Observations layout. Learn more.

Left ArrowRight Arrow

Hourly Observations for April 25, 2016

Temp ( °F °C ) Dew Point ( °F °C ) Humidity (%) Winds ( mph kmh ) Pressure ( in mb ) Visibility ( mi km ) Precip ( " mm )
12:53 am 00:53 Clear 52 11.1 32 0 47 47 NNW 8 13 30.00 1016 10 16 0.00 0.00
1:53 am 01:53 Clear 50 10 33 0.6 52 52 WNW 6 9 30.01 1016 10 16 0.00 0.00
2:53 am 02:53 Clear 49 9.4 32 0 52 52 NW 7 11 30.01 1016 10 16 0.00 0.00
3:53 am 03:53 Clear 47 8.3 32 0 56 56 NW 6 9 30.01 1016 10 16 0.00 0.00
4:53 am 04:53 Clear 47 8.3 31 -0.6 54 54 NW 6 9 30.01 1016 10 16 0.00 0.00
5:53 am 05:53 Clear 45 7.2 31 -0.6 58 58 NW 7 11 30.02 1017 10 16 0.00 0.00
6:53 am 06:53 Sunny 48 8.9 30 -1.1 50 50 WNW 8 13 30.02 1017 10 16 0.00 0.00
7:53 am 07:53 Sunny 53 11.7 32 0 45 45 N 8 13 30.03 1017 10 16 0.00 0.00
8:53 am 08:53 Sunny 57 13.9 28 -2.2 33 33 N 14 22 30.03 1017 10 16 0.00 0.00
9:53 am 09:53 Sunny 59 15 27 -2.8 29 29 N 15 24 30.02 1017 10 16 0.00 0.00
10:53 am 10:53 Sunny 61 16.1 26 -3.3 26 26 N 15 24 30.02 1017 10 16 0.00 0.00
11:53 am 11:53 Sunny 64 17.8 27 -2.8 25 25 NNW 16 26 30.01 1016 10 16 0.00 0.00
12:53 pm 12:53 Sunny 66 18.9 25 -3.9 21 21 NW 12 19 29.99 1016 10 16 0.00 0.00
1:53 pm 13:53 Sunny 68 20 24 -4.4 19 19 N 16 26 29.97 1015 10 16 0.00 0.00
2:53 pm 14:53 Sunny 69 20.6 22 -5.6 17 17 N 14 22 29.96 1015 10 16 0.00 0.00
3:53 pm 15:53 Sunny 70 21.1 19 -7.2 14 14 N 18 30 29.95 1014 10 16 0.00 0.00
4:53 pm 16:53 Sunny 71 21.7 18 -7.8 13 13 N 15 24 29.94 1014 10 16 0.00 0.00
5:53 pm 17:53 Sunny 70 21.1 23 -5 17 17 N 12 19 29.95 1014 10 16 0.00 0.00
6:53 pm 18:53 Sunny 68 20 21 -6.1 17 17 N 14 22 29.95 1014 10 16 0.00 0.00
7:53 pm 19:53 Sunny 64 17.8 26 -3.3 24 24 N 8 13 29.98 1015 10 16 0.00 0.00
8:53 pm 20:53 Clear 60 15.6 29 -1.7 31 31 N 10 17 30.00 1016 10 16 0.00 0.00
9:53 pm 21:53 Clear 60 15.6 26 -3.3 27 27 N 7 11 30.02 1017 10 16 0.00 0.00
10:53 pm 22:53 Clear 57 13.9 28 -2.2 33 33 N 7 11 30.03 1017 10 16 0.00 0.00
11:53 pm 23:53 Clear 57 13.9 26 -3.3 30 30 N 10 17 30.04 1017 10 16 0.00 0.00

Powered by AerisWeather